Data No, UTC Date,UTC Time,Latitude,Longitude,Course(deg),Temp(degC),pH
234,2020/2/2,5:04,42-36.94N,141-37.06E,214,2.851,7.98
235,2020/2/2,5:05,42-36.76N,141-36.90E,214,2.923,7.99
236,2020/2/2,5:06,42-36.51N,141-36.75E,195,3.085,8
237,2020/2/2,5:07,42-36.27N,141-36.77E,174,3.091,8
238,2020/2/2,5:08,42-36.03N,141-36.84E,167,3.067,8
239,2020/2/2,5:09,42-35.76N,141-36.93E,166,3.241,8
240,2020/2/2,5:10,42-35.49N,141-37.02E,165,3.422,8.01
241,2020/2/2,5:11,42-35.19N,141-37.12E,165,3.511,8.01
242,2020/2/2,5:12,42-34.73N,141-37.26E,169,3.516,8.01
243,2020/2/2,5:13,42-34.49N,141-37.30E,173,3.502,8.01
244,2020/2/2,5:14,42-34.27N,141-37.33E,176,3.499,8.01
245,2020/2/2,5:15,42-33.94N,141-37.35E,177,3.478,8.02
246,2020/2/2,5:16,42-33.58N,141-37.36E,178,3.458,8.01
247,2020/2/2,5:18,42-32.78N,141-37.39E,178,3.429,8.02
248,2020/2/2,5:19,42-32.32N,141-37.41E,178,3.43,8.01
249,2020/2/2,5:20,42-31.99N,141-37.42E,178,3.478,8.01
250,2020/2/2,5:21,42-31.75N,141-37.43E,178,3.49,8.01
251,2020/2/2,5:22,42-31.54N,141-37.44E,178,3.511,8.01
252,2020/2/2,5:23,42-31.27N,141-37.44E,178,3.557,8.02
253,2020/2/2,5:24,42-30.62N,141-37.47E,178,3.612,8.02
254,2020/2/2,5:25,42-30.59N,141-37.47E,178,3.61,8.02
255,2020/2/2,5:26,42-30.19N,141-37.49E,179,3.591,8.02
256,2020/2/2,5:28,42-29.42N,141-37.42E,183,3.619,8.02
257,2020/2/2,5:30,42-28.54N,141-37.37E,182,2.74,8.02
258,2020/2/2,5:31,42-28.19N,141-37.34E,182,2.523,8.03
259,2020/2/2,5:32,42-27.97N,141-37.33E,183,2.418,8.03
260,2020/2/2,5:33,42-27.70N,141-37.30E,183,2.369,8.04
261,2020/2/2,5:34,42-27.11N,141-37.25E,183,2.331,8.04
262,2020/2/2,5:35,42-26.94N,141-37.24E,183,2.268,8.04
263,2020/2/2,5:36,42-26.52N,141-37.20E,183,2.204,8.04
264,2020/2/2,5:37,42-26.14N,141-37.17E,183,2.198,8.02
265,2020/2/2,5:38,42-25.80N,141-37.14E,183,2.143,8.02
266,2020/2/2,5:39,42-25.37N,141-37.10E,182,2.138,8.02
267,2020/2/2,5:40,42-24.79N,141-37.09E,180,2.085,8.02
268,2020/2/2,5:42,42-24.10N,141-37.07E,182,2.045,8.01
269,2020/2/2,5:43,42-23.85N,141-37.05E,183,2.053,8.01
270,2020/2/2,5:44,42-23.12N,141-36.96E,186,1.892,8.01
271,2020/2/2,5:45,42-22.93N,141-36.93E,186,1.904,8.01
272,2020/2/2,5:46,42-22.65N,141-36.88E,188,1.894,8.01
273,2020/2/2,5:47,42-21.99N,141-36.69E,192,1.857,8.01
274,2020/2/2,5:48,42-21.63N,141-36.58E,192,1.873,8.02
275,2020/2/2,5:49,42-21.27N,141-36.47E,193,1.863,8.01
276,2020/2/2,5:50,42-21.02N,141-36.39E,193,1.846,8.01
277,2020/2/2,5:51,42-20.77N,141-36.31E,192,1.879,8.01
278,2020/2/2,5:52,42-20.45N,141-36.21E,192,1.894,8.01
279,2020/2/2,5:54,42-19.52N,141-35.98E,188,1.94,8.01
280,2020/2/2,5:55,42-19.31N,141-35.95E,186,1.948,8.01
281,2020/2/2,5:56,42-18.65N,141-35.87E,183,1.974,8.01
282,2020/2/2,6:01,42-16.76N,141-35.78E,181,2.438,8.01
283,2020/2/2,6:02,42-16.51N,141-35.77E,182,2.648,8.01
284,2020/2/2,6:05,42-15.37N,141-35.73E,181,3.671,8.01
285,2020/2/2,6:06,42-14.81N,141-35.71E,181,4.065,8.01
286,2020/2/2,6:08,42-13.95N,141-35.67E,181,4.374,8.02
287,2020/2/2,6:09,42-13.82N,141-35.67E,181,4.397,8.02
288,2020/2/2,6:10,42-13.08N,141-35.66E,179,4.484,8.04
289,2020/2/2,6:11,42-13.06N,141-35.66E,180,4.484,8.03
290,2020/2/2,6:12,42-12.65N,141-35.66E,179,4.491,8.04
291,2020/2/2,6:13,42-12.08N,141-35.67E,178,4.751,8.04
292,2020/2/2,6:15,42-11.24N,141-35.70E,178,4.512,8.04
293,2020/2/2,6:17,42-10.55N,141-35.73E,178,3.47,8.05
294,2020/2/2,6:18,42-10.13N,141-35.75E,177,3.347,8.06
295,2020/2/2,6:19,42-09.78N,141-35.76E,178,3.408,8.07
296,2020/2/2,6:20,42-09.49N,141-35.78E,177,3.477,8.07
297,2020/2/2,6:21,42-09.11N,141-35.79E,178,3.559,8.07
298,2020/2/2,6:22,42-08.63N,141-35.81E,178,3.575,8.06
299,2020/2/2,6:23,42-08.35N,141-35.82E,178,3.573,8.06
300,2020/2/2,6:24,42-07.80N,141-35.84E,178,3.58,8.05
301,2020/2/2,6:25,42-07.50N,141-35.85E,178,3.726,8.05
302,2020/2/2,6:26,42-07.16N,141-35.86E,178,3.922,8.06
303,2020/2/2,6:27,42-06.57N,141-35.88E,179,4.282,8.04
304,2020/2/2,6:28,42-06.40N,141-35.88E,178,4.506,8.05
305,2020/2/2,6:29,42-06.02N,141-35.89E,179,4.806,8.04
306,2020/2/2,6:30,42-05.52N,141-35.91E,178,5.515,8.04
307,2020/2/2,6:31,42-05.09N,141-35.92E,178,5.88,8.04
308,2020/2/2,6:32,42-04.77N,141-35.94E,178,6.208,8.04
309,2020/2/2,6:33,42-04.13N,141-35.96E,178,6.364,8.04
310,2020/2/2,6:34,42-03.76N,141-35.97E,178,5.887,8.05
311,2020/2/2,6:35,42-03.67N,141-35.98E,178,5.809,8.04
312,2020/2/2,6:36,42-03.32N,141-35.99E,178,5.494,8.05
313,2020/2/2,6:37,42-02.68N,141-36.00E,178,5.081,8.06
314,2020/2/2,6:38,42-02.48N,141-36.01E,178,5.065,8.07
315,2020/2/2,6:39,42-02.15N,141-36.02E,179,5.021,8.07
316,2020/2/2,6:40,42-01.41N,141-36.04E,178,3.849,8.07
317,2020/2/2,6:41,42-01.22N,141-36.05E,178,3.486,8.07
318,2020/2/2,6:42,42-00.97N,141-36.05E,178,3.28,8.07
319,2020/2/2,6:43,42-00.25N,141-36.07E,178,3.282,8.07
320,2020/2/2,6:45,41-59.58N,141-36.10E,178,3.18,8.08
321,2020/2/2,6:46,41-59.41N,141-36.10E,178,3.213,8.07
322,2020/2/2,6:47,41-58.93N,141-36.12E,178,3.198,8.07
323,2020/2/2,6:49,41-58.21N,141-36.13E,179,3.142,8.06
324,2020/2/2,6:50,41-57.55N,141-36.15E,178,3.135,8.06
325,2020/2/2,6:51,41-57.35N,141-36.16E,179,3.13,8.06
326,2020/2/2,6:52,41-56.98N,141-36.17E,178,3.108,8.05
327,2020/2/2,6:53,41-56.62N,141-36.18E,178,3.12,8.05
328,2020/2/2,6:57,41-55.12N,141-36.24E,178,2.702,8.06
329,2020/2/2,6:58,41-54.71N,141-36.26E,178,2.709,8.06
330,2020/2/2,6:59,41-54.07N,141-36.28E,178,2.781,8.05
331,2020/2/2,7:00,41-53.63N,141-36.30E,178,2.765,8.05
332,2020/2/2,7:05,41-52.01N,141-36.35E,178,2.618,8.04
333,2020/2/2,7:08,41-50.84N,141-36.38E,179,2.429,8.05
334,2020/2/2,7:11,41-49.72N,141-36.40E,179,2.459,8.06
335,2020/2/2,7:12,41-49.07N,141-36.41E,179,2.592,8.06
336,2020/2/2,7:13,41-48.94N,141-36.42E,179,2.651,8.06
337,2020/2/2,7:16,41-47.62N,141-36.47E,175,3.236,8.05
338,2020/2/2,7:18,41-47.03N,141-36.56E,171,3.872,8.05
339,2020/2/2,7:19,41-46.52N,141-36.68E,169,4.211,8.04
340,2020/2/2,7:20,41-46.15N,141-36.78E,168,4.777,8.04
341,2020/2/2,7:21,41-45.66N,141-36.91E,168,5.463,8.05
342,2020/2/2,7:22,41-45.48N,141-36.96E,168,5.493,8.04
343,2020/2/2,7:23,41-45.07N,141-37.06E,169,5.279,8.04
344,2020/2/2,7:25,41-44.00N,141-37.33E,169,5.331,8.06
345,2020/2/2,7:27,41-43.40N,141-37.49E,167,5.893,8.07
346,2020/2/2,7:28,41-43.17N,141-37.56E,167,6.086,8.06
347,2020/2/2,7:29,41-42.63N,141-37.73E,168,6.185,8.06
348,2020/2/2,7:32,41-41.41N,141-38.00E,171,5.961,8.06
349,2020/2/2,7:35,41-40.28N,141-38.20E,173,5.968,8.07
350,2020/2/2,7:37,41-39.31N,141-38.30E,176,5.903,8.07
351,2020/2/2,7:38,41-39.13N,141-38.32E,175,5.893,8.07
352,2020/2/2,7:44,41-36.58N,141-38.58E,176,5.906,8.07
353,2020/2/2,7:46,41-35.96N,141-38.63E,176,6.57,8.08
354,2020/2/2,7:47,41-35.54N,141-38.66E,176,6.397,8.08
355,2020/2/2,7:48,41-34.96N,141-38.71E,175,6.004,8.08
356,2020/2/2,7:49,41-34.42N,141-38.76E,175,6.749,8.08
357,2020/2/2,7:52,41-33.32N,141-38.87E,175,10.132,8.07
358,2020/2/2,7:53,41-32.77N,141-38.92E,176,10.301,8.08
359,2020/2/2,7:54,41-32.51N,141-38.94E,176,10.339,8.1
360,2020/2/2,7:56,41-31.83N,141-39.00E,176,10.376,8.12
361,2020/2/2,7:57,41-31.27N,141-39.05E,176,10.398,8.13
362,2020/2/2,7:58,41-30.77N,141-39.08E,177,10.467,8.13
363,2020/2/2,8:04,41-28.45N,141-39.23E,177,10.181,8.15
364,2020/2/2,8:08,41-26.68N,141-39.34E,176,10.194,8.15
365,2020/2/2,8:11,41-25.46N,141-39.43E,176,10.21,8.15
366,2020/2/2,8:22,41-21.07N,141-39.82E,176,10.623,8.15
367,2020/2/2,8:26,41-19.55N,141-39.94E,176,10.612,8.15
368,2020/2/2,8:27,41-19.34N,141-39.96E,176,10.608,8.15
369,2020/2/2,8:29,41-18.35N,141-40.03E,177,10.637,8.15
370,2020/2/2,8:33,41-17.03N,141-40.09E,178,10.725,8.15
371,2020/2/2,8:42,41-13.23N,141-40.25E,178,10.704,8.15
372,2020/2/2,8:45,41-11.98N,141-40.29E,178,10.691,8.15
373,2020/2/2,8:52,41-09.03N,141-40.38E,176,10.582,8.15
374,2020/2/2,9:01,41-05.67N,141-40.56E,178,10.536,8.15
375,2020/2/2,9:02,41-05.20N,141-40.58E,177,10.522,8.14
376,2020/2/2,9:04,41-04.45N,141-40.62E,178,10.496,8.15
377,2020/2/2,9:07,41-03.05N,141-40.68E,178,10.44,8.15
378,2020/2/2,9:08,41-02.60N,141-40.69E,178,10.417,8.15
379,2020/2/2,9:39,40-50.40N,141-43.69E,162,10.207,8.13
380,2020/2/2,9:41,40-49.69N,141-43.99E,162,10.25,8.13
381,2020/2/2,9:42,40-49.32N,141-44.14E,163,10.295,8.13
382,2020/2/2,9:43,40-48.74N,141-44.38E,162,10.308,8.13
383,2020/2/2,9:47,40-47.30N,141-44.94E,163,10.048,8.13
384,2020/2/2,9:51,40-46.04N,141-45.46E,163,9.89,8.13
385,2020/2/2,9:59,40-42.86N,141-46.80E,162,9.777,8.13
386,2020/2/2,10:03,40-41.48N,141-47.38E,161,9.704,8.13
387,2020/2/2,10:05,40-40.91N,141-47.63E,162,9.665,8.13
388,2020/2/2,10:08,40-39.68N,141-48.14E,161,9.619,8.13
389,2020/2/2,10:09,40-39.43N,141-48.25E,161,9.652,8.13
390,2020/2/2,10:14,40-37.36N,141-49.10E,163,9.915,8.13
391,2020/2/2,10:15,40-37.16N,141-49.18E,163,9.935,8.13
392,2020/2/2,10:22,40-34.43N,141-50.26E,163,10.044,8.13
393,2020/2/2,10:24,40-33.83N,141-50.49E,163,10.05,8.13
394,2020/2/2,10:25,40-33.38N,141-50.66E,164,10.049,8.13
395,2020/2/2,10:34,40-30.12N,141-51.85E,164,9.852,8.13
396,2020/2/2,10:46,40-25.37N,141-53.30E,174,9.548,8.12
397,2020/2/2,10:51,40-23.50N,141-53.74E,163,9.557,8.13
398,2020/2/2,11:07,40-17.91N,141-55.94E,163,9.448,8.13
399,2020/2/2,11:13,40-15.87N,141-56.71E,163,9.355,8.12
400,2020/2/2,11:18,40-13.84N,141-57.19E,173,9.2,8.12
401,2020/2/2,11:29,40-10.14N,141-58.72E,158,9.039,8.12
402,2020/2/2,11:32,40-08.85N,141-59.37E,158,9.152,8.12
403,2020/2/2,11:38,40-06.61N,142-00.43E,164,9.311,8.12
404,2020/2/2,11:40,40-05.87N,142-00.69E,164,9.305,8.13
405,2020/2/2,11:53,40-01.34N,142-02.33E,164,9.785,8.13
406,2020/2/2,11:54,40-00.97N,142-02.47E,164,9.789,8.13
407,2020/2/2,11:59,39-59.21N,142-03.11E,164,9.772,8.13
408,2020/2/2,12:11,39-54.89N,142-04.69E,164,9.763,8.13
409,2020/2/2,12:43,39-43.42N,142-08.59E,167,9.434,8.1
410,2020/2/2,12:46,39-42.41N,142-08.89E,167,9.424,8.1
411,2020/2/2,12:47,39-41.85N,142-09.08E,165,9.398,8.1
412,2020/2/2,13:02,39-37.03N,142-11.72E,178,9.096,8.1
413,2020/2/2,13:43,39-22.11N,142-06.94E,194,9.619,8.12
414,2020/2/2,13:51,39-19.51N,142-06.02E,190,9.624,8.11
415,2020/2/2,13:56,39-17.59N,142-05.36E,197,9.641,8.12
416,2020/2/2,14:07,39-13.25N,142-03.83E,190,9.543,8.11
417,2020/2/2,14:20,39-08.65N,142-02.42E,192,9.559,8.12
418,2020/2/2,14:27,39-06.01N,142-01.54E,195,9.528,8.12
419,2020/2/2,14:40,39-01.27N,141-59.55E,200,9.504,8.1
420,2020/2/2,14:45,38-59.57N,141-58.81E,200,9.491,8.1
421,2020/2/2,15:12,38-49.96N,141-55.17E,191,9.672,8.09
422,2020/2/2,15:43,38-38.85N,141-51.73E,194,9.773,8.08
423,2020/2/2,15:49,38-36.68N,141-51.00E,194,9.649,8.08
424,2020/2/2,16:04,38-31.39N,141-49.25E,202,10.223,8.08
425,2020/2/2,16:05,38-31.20N,141-49.16E,200,10.218,8.08
426,2020/2/2,16:37,38-20.11N,141-42.76E,203,9.903,8.09
427,2020/2/2,16:39,38-19.62N,141-42.47E,205,9.677,8.09
428,2020/2/2,16:49,38-15.99N,141-40.15E,209,9.929,8.08
429,2020/2/2,17:02,38-11.37N,141-38.16E,192,10.003,8.1
430,2020/2/2,17:06,38-10.05N,141-37.83E,187,9.976,8.1
431,2020/2/2,17:24,38-03.12N,141-35.72E,192,10.189,8.07
432,2020/2/2,17:45,37-55.44N,141-33.25E,193,10.496,8.07
433,2020/2/2,17:55,37-51.75N,141-32.07E,196,11.661,8.09
434,2020/2/2,18:05,37-48.13N,141-30.82E,197,11.501,8.08
435,2020/2/2,18:16,37-43.99N,141-29.47E,193,12.125,8.08
436,2020/2/2,18:29,37-39.63N,141-27.83E,200,12.896,8.08
437,2020/2/2,18:31,37-38.88N,141-27.50E,196,13.569,8.08
438,2020/2/2,18:32,37-38.54N,141-27.37E,197,13.768,8.08
439,2020/2/2,18:39,37-36.05N,141-26.26E,195,14.557,8.1
440,2020/2/2,18:40,37-35.61N,141-26.09E,199,14.74,8.1
441,2020/2/2,18:54,37-30.62N,141-24.37E,193,15.38,8.12
442,2020/2/2,18:56,37-29.82N,141-24.14E,194,15.494,8.12
443,2020/2/2,18:58,37-29.45N,141-24.01E,195,15.558,8.12
444,2020/2/2,18:59,37-28.77N,141-23.81E,190,15.655,8.11
445,2020/2/2,19:00,37-28.50N,141-23.74E,192,15.674,8.11
446,2020/2/2,19:01,37-28.36N,141-23.70E,194,15.692,8.11
447,2020/2/2,19:02,37-27.83N,141-23.50E,197,15.751,8.11
448,2020/2/2,19:10,37-25.17N,141-22.65E,196,15.952,8.11
449,2020/2/2,19:14,37-23.60N,141-22.13E,196,15.878,8.11
450,2020/2/2,19:16,37-23.06N,141-21.95E,193,15.861,8.11
451,2020/2/2,19:19,37-21.77N,141-21.53E,193,15.803,8.11
452,2020/2/2,19:20,37-21.58N,141-21.47E,193,15.778,8.11
453,2020/2/2,19:21,37-21.31N,141-21.39E,193,15.713,8.12
454,2020/2/2,19:22,37-20.87N,141-21.22E,197,15.653,8.11
455,2020/2/2,19:23,37-20.27N,141-21.02E,191,15.702,8.11
456,2020/2/2,19:25,37-19.86N,141-20.91E,192,15.693,8.11
457,2020/2/2,19:28,37-18.81N,141-20.54E,191,15.65,8.11
458,2020/2/2,19:29,37-18.46N,141-20.45E,192,15.63,8.11
459,2020/2/2,19:30,37-17.89N,141-20.24E,196,15.687,8.1
460,2020/2/2,19:32,37-17.19N,141-20.02E,193,15.89,8.1
461,2020/2/2,19:33,37-16.80N,141-19.90E,194,15.885,8.11
462,2020/2/2,19:37,37-15.61N,141-19.51E,190,15.469,8.11
463,2020/2/2,19:38,37-15.24N,141-19.40E,195,15.456,8.11
464,2020/2/2,19:39,37-14.66N,141-19.18E,195,15.508,8.11
465,2020/2/2,19:40,37-14.43N,141-19.11E,194,15.557,8.1
466,2020/2/2,19:41,37-14.06N,141-18.99E,193,15.596,8.1
467,2020/2/2,19:44,37-13.00N,141-18.65E,195,15.295,8.1
468,2020/2/2,19:45,37-12.47N,141-18.48E,191,15.304,8.1
469,2020/2/2,19:46,37-12.17N,141-18.40E,192,15.314,8.1
470,2020/2/2,19:48,37-11.70N,141-18.24E,196,15.28,8.1
471,2020/2/2,19:50,37-10.95N,141-17.97E,192,15.53,8.1
472,2020/2/2,19:51,37-10.44N,141-17.84E,194,15.432,8.1
473,2020/2/2,19:52,37-09.97N,141-17.67E,196,15.391,8.1
474,2020/2/2,19:55,37-09.10N,141-17.38E,193,15.226,8.1
475,2020/2/2,19:56,37-08.64N,141-17.22E,196,15.105,8.1
476,2020/2/2,19:57,37-08.50N,141-17.17E,195,15.093,8.11
477,2020/2/2,19:59,37-07.66N,141-16.89E,192,14.927,8.1
478,2020/2/2,20:00,37-07.39N,141-16.82E,192,14.568,8.1
479,2020/2/2,20:02,37-06.53N,141-16.51E,197,14.551,8.11
480,2020/2/2,20:03,37-06.20N,141-16.39E,195,14.533,8.11
481,2020/2/2,20:06,37-05.24N,141-16.13E,195,14.267,8.1
482,2020/2/2,20:08,37-04.52N,141-15.92E,191,13.995,8.1
483,2020/2/2,20:09,37-04.14N,141-15.82E,192,14.149,8.1
484,2020/2/2,20:10,37-03.76N,141-15.70E,195,14.315,8.11
485,2020/2/2,20:11,37-03.45N,141-15.60E,195,14.577,8.11
486,2020/2/2,20:12,37-02.84N,141-15.43E,192,15.151,8.11
487,2020/2/2,20:13,37-02.62N,141-15.36E,194,15.443,8.11
488,2020/2/2,20:15,37-01.98N,141-15.15E,195,15.704,8.1
489,2020/2/2,20:16,37-01.75N,141-15.08E,194,15.744,8.1
490,2020/2/2,20:17,37-01.41N,141-14.98E,193,15.766,8.1
491,2020/2/2,20:18,37-00.78N,141-14.81E,191,15.787,8.1
492,2020/2/2,20:19,37-00.67N,141-14.78E,193,15.812,8.1
493,2020/2/2,20:20,37-00.12N,141-14.58E,196,15.945,8.1
494,2020/2/2,20:23,36-59.30N,141-14.36E,192,16.151,8.08
495,2020/2/2,20:24,36-58.99N,141-14.25E,197,16.168,8.08
496,2020/2/2,20:25,36-58.38N,141-14.04E,191,16.128,8.1
497,2020/2/2,20:26,36-58.22N,141-14.01E,190,16.076,8.1
498,2020/2/2,20:27,36-57.82N,141-13.90E,196,16.035,8.1
499,2020/2/2,20:28,36-57.63N,141-13.83E,195,16.062,8.11
500,2020/2/2,20:29,36-57.29N,141-13.73E,191,16.108,8.1
501,2020/2/2,20:30,36-56.92N,141-13.65E,190,16.159,8.1
502,2020/2/2,20:31,36-56.63N,141-13.60E,187,16.208,8.1
503,2020/2/2,20:32,36-56.30N,141-13.55E,185,16.308,8.11
504,2020/2/2,20:33,36-55.84N,141-13.49E,187,16.392,8.1
505,2020/2/2,20:34,36-55.60N,141-13.45E,188,16.414,8.1
506,2020/2/2,20:35,36-55.26N,141-13.39E,188,16.437,8.1
507,2020/2/2,20:36,36-54.85N,141-13.32E,186,16.458,8.1
508,2020/2/2,20:37,36-54.49N,141-13.28E,185,16.443,8.11
509,2020/2/2,20:38,36-54.11N,141-13.22E,188,16.436,8.1
510,2020/2/2,20:39,36-53.77N,141-13.15E,188,16.439,8.1
511,2020/2/2,20:40,36-53.45N,141-13.09E,186,16.43,8.1
512,2020/2/2,20:41,36-53.15N,141-13.07E,183,16.44,8.1
513,2020/2/2,20:42,36-52.56N,141-12.98E,190,16.412,8.1
514,2020/2/2,20:43,36-52.41N,141-12.94E,191,16.396,8.1
515,2020/2/2,20:44,36-51.87N,141-12.84E,184,16.34,8.1
516,2020/2/2,20:45,36-51.77N,141-12.84E,183,16.33,8.11
517,2020/2/2,20:46,36-51.41N,141-12.80E,185,16.279,8.11
518,2020/2/2,20:47,36-50.93N,141-12.70E,192,16.223,8.11
519,2020/2/2,20:48,36-50.63N,141-12.63E,188,16.168,8.11
520,2020/2/2,20:49,36-50.32N,141-12.61E,183,16.147,8.12
521,2020/2/2,20:50,36-49.95N,141-12.56E,187,16.139,8.12
522,2020/2/2,20:51,36-49.55N,141-12.46E,191,16.124,8.11
523,2020/2/2,20:52,36-49.33N,141-12.42E,188,16.115,8.11
524,2020/2/2,20:53,36-48.85N,141-12.36E,184,16.101,8.11
525,2020/2/2,20:54,36-48.59N,141-12.32E,187,16.093,8.11
526,2020/2/2,20:55,36-48.13N,141-12.24E,188,16.08,8.11
527,2020/2/2,20:56,36-47.87N,141-12.18E,190,16.072,8.11
528,2020/2/2,20:57,36-47.54N,141-12.13E,186,16.064,8.11
529,2020/2/2,20:58,36-47.05N,141-12.08E,184,16.125,8.11
530,2020/2/2,20:59,36-46.77N,141-12.03E,188,16.14,8.11
531,2020/2/2,21:00,36-46.49N,141-11.96E,191,16.165,8.11
532,2020/2/2,21:01,36-46.05N,141-11.87E,187,16.2,8.1
533,2020/2/2,21:02,36-45.77N,141-11.83E,185,16.216,8.11
534,2020/2/2,21:03,36-45.34N,141-11.75E,188,16.243,8.11
535,2020/2/2,21:04,36-45.05N,141-11.69E,190,16.25,8.11
536,2020/2/2,21:05,36-44.74N,141-11.62E,190,16.26,8.11
537,2020/2/2,21:06,36-44.21N,141-11.51E,188,16.231,8.11
538,2020/2/2,21:07,36-43.98N,141-11.47E,188,16.249,8.11
539,2020/2/2,21:08,36-43.68N,141-11.40E,190,16.262,8.11
540,2020/2/2,21:09,36-43.35N,141-11.31E,193,16.259,8.11
541,2020/2/2,21:10,36-42.97N,141-11.24E,185,16.175,8.11
542,2020/2/2,21:11,36-42.62N,141-11.19E,187,16.152,8.11
543,2020/2/2,21:12,36-42.22N,141-11.09E,192,16.123,8.11
544,2020/2/2,21:13,36-41.84N,141-11.01E,189,16.147,8.11
545,2020/2/2,21:14,36-41.59N,141-10.96E,187,16.187,8.1
546,2020/2/2,21:15,36-41.25N,141-10.91E,187,16.223,8.1
547,2020/2/2,21:16,36-40.74N,141-10.79E,190,16.25,8.11
548,2020/2/2,21:17,36-40.49N,141-10.74E,189,16.255,8.1
549,2020/2/2,21:18,36-40.21N,141-10.69E,188,16.251,8.11
550,2020/2/2,21:19,36-39.84N,141-10.61E,188,16.24,8.11
551,2020/2/2,21:20,36-39.50N,141-10.55E,188,16.272,8.11
552,2020/2/2,21:21,36-39.11N,141-10.46E,190,16.307,8.11
553,2020/2/2,21:22,36-38.77N,141-10.39E,189,16.319,8.11
554,2020/2/2,21:23,36-38.38N,141-10.31E,188,16.319,8.11
555,2020/2/2,21:24,36-38.07N,141-10.26E,186,16.31,8.11
556,2020/2/2,21:25,36-37.68N,141-10.20E,187,16.34,8.11
557,2020/2/2,21:26,36-37.35N,141-10.13E,190,16.348,8.11
558,2020/2/2,21:27,36-37.01N,141-10.06E,190,16.339,8.11
559,2020/2/2,21:28,36-36.63N,141-09.99E,186,16.344,8.11
560,2020/2/2,21:29,36-36.31N,141-09.95E,185,16.352,8.11
561,2020/2/2,21:30,36-35.87N,141-09.88E,189,16.35,8.11
562,2020/2/2,21:31,36-35.54N,141-09.80E,191,16.348,8.11
563,2020/2/2,21:32,36-35.25N,141-09.73E,189,16.342,8.11
564,2020/2/2,21:33,36-34.90N,141-09.69E,184,16.306,8.1
565,2020/2/2,21:34,36-34.53N,141-09.66E,184,16.238,8.11
566,2020/2/2,21:35,36-34.10N,141-09.56E,191,16.193,8.1
567,2020/2/2,21:36,36-33.82N,141-09.50E,187,16.182,8.11
568,2020/2/2,21:37,36-33.48N,141-09.46E,187,16.197,8.11
569,2020/2/2,21:38,36-33.15N,141-09.39E,189,16.194,8.12
570,2020/2/2,21:39,36-32.78N,141-09.32E,189,16.215,8.12
571,2020/2/2,21:40,36-32.45N,141-09.24E,191,16.226,8.11
572,2020/2/2,21:41,36-32.05N,141-09.13E,191,16.244,8.12
573,2020/2/2,21:42,36-31.74N,141-09.05E,190,16.264,8.12
574,2020/2/2,21:43,36-31.41N,141-08.98E,189,16.287,8.11
575,2020/2/2,21:44,36-31.02N,141-08.89E,191,16.332,8.11
576,2020/2/2,21:45,36-30.66N,141-08.78E,193,16.372,8.11
577,2020/2/2,21:46,36-30.32N,141-08.70E,189,16.404,8.11
578,2020/2/2,21:47,36-29.99N,141-08.64E,187,16.429,8.11
579,2020/2/2,21:48,36-29.64N,141-08.56E,192,16.445,8.11
580,2020/2/2,21:49,36-29.29N,141-08.45E,194,16.461,8.11
581,2020/2/2,21:50,36-28.97N,141-08.33E,197,16.467,8.12
582,2020/2/2,21:51,36-28.63N,141-08.20E,196,16.448,8.12
583,2020/2/2,21:52,36-28.29N,141-08.10E,192,16.437,8.11
584,2020/2/2,21:53,36-27.93N,141-07.99E,194,16.414,8.11
585,2020/2/2,21:54,36-27.60N,141-07.87E,197,16.394,8.11
586,2020/2/2,21:55,36-27.29N,141-07.75E,196,16.382,8.11
587,2020/2/2,21:56,36-26.94N,141-07.64E,193,16.368,8.11
588,2020/2/2,21:57,36-26.61N,141-07.55E,193,16.35,8.11
589,2020/2/2,21:58,36-26.24N,141-07.42E,197,16.332,8.11
590,2020/2/2,21:59,36-25.91N,141-07.29E,196,16.322,8.12
591,2020/2/2,22:00,36-25.61N,141-07.19E,193,16.309,8.11
592,2020/2/2,22:01,36-25.24N,141-07.08E,194,16.282,8.11
593,2020/2/2,22:02,36-24.92N,141-06.97E,196,16.272,8.12
594,2020/2/2,22:03,36-24.60N,141-06.84E,198,16.26,8.12
595,2020/2/2,22:04,36-24.27N,141-06.72E,194,16.252,8.12
596,2020/2/2,22:05,36-23.93N,141-06.63E,191,16.234,8.12
597,2020/2/2,22:06,36-23.57N,141-06.52E,195,16.225,8.12
598,2020/2/2,22:07,36-23.17N,141-06.34E,200,16.218,8.12
599,2020/2/2,22:08,36-22.93N,141-06.24E,198,16.205,8.12
600,2020/2/2,22:09,36-22.52N,141-06.13E,191,16.199,8.12
601,2020/2/2,22:10,36-22.24N,141-06.04E,195,16.192,8.12
602,2020/2/2,22:11,36-21.91N,141-05.89E,200,16.179,8.12
603,2020/2/2,22:12,36-21.60N,141-05.78E,195,16.16,8.12
604,2020/2/2,22:13,36-21.27N,141-05.67E,193,16.161,8.12
605,2020/2/2,22:14,36-20.94N,141-05.56E,197,16.167,8.12
606,2020/2/2,22:15,36-20.58N,141-05.40E,199,16.174,8.13
607,2020/2/2,22:16,36-20.27N,141-05.28E,195,16.17,8.13
608,2020/2/2,22:17,36-19.95N,141-05.19E,194,16.164,8.12
609,2020/2/2,22:18,36-19.60N,141-05.06E,197,16.159,8.12
610,2020/2/2,22:19,36-19.28N,141-04.92E,199,16.156,8.13
611,2020/2/2,22:20,36-18.97N,141-04.79E,198,16.16,8.13
612,2020/2/2,22:21,36-18.65N,141-04.68E,194,16.16,8.13
613,2020/2/2,22:22,36-18.31N,141-04.58E,194,16.167,8.13
614,2020/2/2,22:23,36-17.98N,141-04.44E,199,16.17,8.13
615,2020/2/2,22:24,36-17.65N,141-04.29E,199,16.174,8.12
616,2020/2/2,22:25,36-17.32N,141-04.17E,195,16.191,8.12
617,2020/2/2,22:26,36-16.98N,141-04.06E,194,16.212,8.13
618,2020/2/2,22:27,36-16.64N,141-03.93E,198,16.216,8.12
619,2020/2/2,22:28,36-16.33N,141-03.79E,200,16.231,8.13
620,2020/2/2,22:29,36-15.99N,141-03.65E,195,16.244,8.12
621,2020/2/2,22:30,36-15.67N,141-03.55E,194,16.249,8.12
622,2020/2/2,22:31,36-15.33N,141-03.42E,198,16.263,8.13
623,2020/2/2,22:32,36-15.00N,141-03.27E,200,16.273,8.12
624,2020/2/2,22:33,36-14.68N,141-03.13E,198,16.28,8.12
625,2020/2/2,22:34,36-14.33N,141-03.00E,195,16.287,8.12
626,2020/2/2,22:35,36-14.00N,141-02.89E,196,16.295,8.12
627,2020/2/2,22:36,36-13.67N,141-02.74E,201,16.298,8.12
628,2020/2/2,22:37,36-13.29N,141-02.55E,200,16.295,8.12
629,2020/2/2,22:38,36-13.01N,141-02.44E,196,16.291,8.12
630,2020/2/2,22:39,36-12.69N,141-02.33E,196,16.287,8.12
631,2020/2/2,22:40,36-12.36N,141-02.19E,199,16.283,8.12
632,2020/2/2,22:41,36-12.00N,141-02.03E,199,16.276,8.12
633,2020/2/2,22:42,36-11.70N,141-01.90E,199,16.262,8.12
634,2020/2/2,22:43,36-11.37N,141-01.77E,197,16.241,8.12
635,2020/2/2,22:44,36-11.05N,141-01.65E,197,16.239,8.12
636,2020/2/2,22:45,36-10.72N,141-01.50E,200,16.239,8.12
637,2020/2/2,22:46,36-10.36N,141-01.31E,206,16.242,8.11
638,2020/2/2,22:47,36-10.08N,141-01.12E,208,16.235,8.11
639,2020/2/2,22:48,36-09.77N,141-00.89E,211,16.206,8.11
640,2020/2/2,22:49,36-09.49N,141-00.68E,209,16.176,8.1
641,2020/2/2,22:50,36-09.17N,141-00.47E,207,16.146,8.1
642,2020/2/2,22:51,36-08.85N,141-00.26E,209,16.119,8.1
643,2020/2/2,22:52,36-08.57N,141-00.04E,211,16.102,8.1
644,2020/2/2,22:53,36-08.26N,140-59.82E,208,16.1,8.1
645,2020/2/2,22:54,36-07.94N,140-59.64E,203,16.119,8.1
646,2020/2/2,22:55,36-07.60N,140-59.47E,201,16.125,8.1
647,2020/2/2,22:56,36-07.29N,140-59.35E,196,16.143,8.1
648,2020/2/2,22:57,36-06.96N,140-59.25E,190,16.151,8.1
649,2020/2/2,22:58,36-06.61N,140-59.21E,183,16.173,8.1
650,2020/2/2,22:59,36-06.25N,140-59.20E,181,16.186,8.1
651,2020/2/2,23:00,36-05.92N,140-59.20E,178,16.196,8.1
652,2020/2/2,23:01,36-05.57N,140-59.20E,181,16.2,8.1
653,2020/2/2,23:02,36-05.23N,140-59.18E,183,16.205,8.1
654,2020/2/2,23:03,36-04.88N,140-59.16E,180,16.207,8.1
655,2020/2/2,23:04,36-04.53N,140-59.17E,180,16.203,8.1
656,2020/2/2,23:05,36-04.17N,140-59.15E,182,16.194,8.1
657,2020/2/2,23:06,36-03.81N,140-59.15E,179,16.298,8.1
658,2020/2/2,23:07,36-03.40N,140-59.15E,180,16.469,8.11
659,2020/2/2,23:08,36-03.10N,140-59.14E,181,16.553,8.11
660,2020/2/2,23:09,36-02.72N,140-59.13E,180,---,8.11